FW6530 Weather Reports


Display with metric or nautical units.
time (UTC)temp
F
wind
direction
speed
MPH
gust
MPH
rain 1hr
in
rain 24hr
in
rain mn
in
humidity
%
barometer
mb
20260905004542 77 339 9.0 25.0 0.00 0.01 0.01 48 1025.6
20260905004023 79 49 7.0 17.0 0.00 0.01 0.01 39 1025.3
20260905003525 79 112 5.0 10.0 0.00 0.01 0.01 38 1024.8
20260905003051 79 118 4.0 9.0 0.00 0.01 0.01 38 1024.7
20260905002522 79 146 3.0 9.0 0.00 0.01 0.01 38 1024.7
20260905002023 79 123 4.0 9.0 0.00 0.01 0.01 37 1024.6
20260905001547 79 125 4.0 9.0 0.00 0.01 0.01 37 1024.6
20260905001026 80 126 4.0 8.0 0.00 0.01 0.01 37 1024.5
20260905000527 80 63 2.0 7.0 0.00 0.01 0.01 37 1024.5
20260905000042 80 131 3.0 7.0 0.00 0.01 0.01 36 1024.4
20260904235523 80 86 2.0 9.0 0.00 0.01 0.01 36 1024.4
20260904235023 80 121 4.0 9.0 0.00 0.01 0.01 35 1024.4
20260904234542 80 126 5.0 9.0 0.00 0.01 0.01 35 1024.3
20260904234023 80 108 2.0 10.0 0.00 0.01 0.01 36 1024.2
20260904233523 81 101 3.0 10.0 0.00 0.01 0.01 35 1024.3
20260904233050 81 66 6.0 10.0 0.00 0.01 0.01 35 1024.3
20260904232524 81 94 2.0 9.0 0.00 0.01 0.01 35 1024.2
20260904232025 81 98 5.0 9.0 0.00 0.01 0.01 35 1024.3
20260904231602 81 113 4.0 8.0 0.00 0.01 0.01 35 1024.2
20260904231024 81 110 3.0 7.0 0.00 0.01 0.01 34 1024.3
20260904230526 82 115 3.0 11.0 0.00 0.01 0.01 34 1024.2
20260904230042 82 92 2.0 11.0 0.00 0.01 0.01 34 1024.1
20260904225522 82 96 6.0 11.0 0.00 0.01 0.01 34 1024.2
20260904225026 82 121 5.0 9.0 0.00 0.01 0.01 33 1024.1
20260904224554 83 161 5.0 11.0 0.00 0.01 0.01 34 1024.2
20260904224023 83 187 4.0 11.0 0.00 0.01 0.01 33 1024.2
20260904223528 84 94 6.0 11.0 0.00 0.01 0.01 32 1024.1
20260904223050 84 107 0.0 9.0 0.00 0.01 0.01 33 1024.2
20260904222528 84 102 4.0 12.0 0.00 0.01 0.01 32 1024.3
20260904222024 84 84 7.0 12.0 0.00 0.01 0.01 32 1024.2
20260904221547 86 72 7.0 12.0 0.00 0.01 0.01 30 1024.1
20260904221024 86 59 2.0 11.0 0.00 0.01 0.01 31 1024.0
20260904220524 85 30 5.0 11.0 0.00 0.01 0.01 32 1024.1
20260904220047 85 32 4.0 12.0 0.00 0.01 0.01 30 1024.2
20260904215527 85 52 5.0 12.0 0.00 0.01 0.01 31 1024.1
20260904215027 85 89 6.0 10.0 0.00 0.01 0.01 31 1024.1
20260904214541 86 112 3.0 13.0 0.00 0.01 0.01 31 1024.2
20260904214024 85 66 2.0 16.0 0.00 0.01 0.01 32 1024.3
20260904213527 85 92 5.0 16.0 0.00 0.01 0.01 31 1024.3
20260904213045 85 42 7.0 15.0 0.00 0.01 0.01 31 1024.4
20260904212523 85 64 7.0 15.0 0.00 0.01 0.01 32 1024.5
20260904212025 86 99 3.0 14.0 0.00 0.01 0.01 32 1024.4
20260904211542 86 165 5.0 12.0 0.00 0.01 0.01 31 1024.4
20260904211029 86 104 2.0 12.0 0.00 0.01 0.01 31 1024.5
20260904210526 86 68 6.0 12.0 0.00 0.01 0.01 31 1024.5
20260904210055 86 77 4.0 11.0 0.00 0.01 0.01 32 1024.6
20260904205524 85 117 5.0 11.0 0.00 0.01 0.01 32 1024.8
20260904205025 85 80 4.0 9.0 0.00 0.01 0.01 33 1024.7
20260904204544 84 200 2.0 7.0 0.00 0.01 0.01 34 1024.8
20260904204026 84 42 2.0 6.0 0.00 0.01 0.01 35 1025.0
20260904203525 83 111 2.0 6.0 0.00 0.01 0.01 35 1025.2
20260904203052 83 121 2.0 6.0 0.00 0.01 0.01 36 1025.3
20260904202525 82 0 1.0 10.0 0.00 0.01 0.01 35 1025.3
20260904202027 82 0 2.0 10.0 0.00 0.01 0.01 37 1025.4
20260904201555 83 116 1.0 8.0 0.00 0.01 0.01 36 1025.5
20260904201023 83 156 2.0 12.0 0.00 0.01 0.01 36 1025.5
20260904200524 83 138 5.0 12.0 0.00 0.01 0.01 37 1025.6
20260904200108 82 128 1.0 9.0 0.00 0.01 0.01 37 1025.7
20260904195526 82 107 5.0 9.0 0.00 0.01 0.01 37 1025.8
20260904195029 82 107 2.0 7.0 0.00 0.01 0.01 37 1025.8
20260904194551 81 161 3.0 9.0 0.00 0.01 0.01 38 1025.9
20260904194025 81 165 1.0 9.0 0.00 0.01 0.01 39 1026.1
20260904193526 81 175 1.0 7.0 0.00 0.01 0.01 40 1026.1
20260904193042 81 194 2.0 9.0 0.00 0.01 0.01 39 1026.1
20260904192525 81 33 3.0 9.0 0.00 0.01 0.01 39 1026.4
20260904192024 81 35 4.0 9.0 0.00 0.01 0.01 40 1026.4
20260904191543 80 41 2.0 7.0 0.00 0.01 0.01 41 1026.5
20260904191023 79 124 1.0 13.0 0.00 0.01 0.01 42 1026.5
20260904190524 79 105 3.0 13.0 0.00 0.01 0.01 42 1026.5
20260904190052 78 100 6.0 13.0 0.00 0.01 0.01 43 1026.6
20260904185525 78 36 1.0 7.0 0.00 0.01 0.01 44 1026.8
20260904185024 78 38 2.0 10.0 0.00 0.01 0.01 44 1027.0
20260904184559 77 47 4.0 10.0 0.00 0.01 0.01 46 1027.0
20260904184024 77 78 6.0 11.0 0.00 0.01 0.01 45 1027.1
20260904183524 77 32 4.0 12.0 0.00 0.01 0.01 47 1027.2
20260904183054 76 55 3.0 12.0 0.00 0.01 0.01 47 1027.1
20260904182530 75 38 1.0 9.0 0.00 0.01 0.01 50 1027.2
20260904182028 74 43 5.0 9.0 0.00 0.01 0.01 50 1027.4
20260904181551 74 101 4.0 11.0 0.00 0.01 0.01 50 1027.4
20260904181024 74 84 4.0 11.0 0.00 0.01 0.01 50 1027.4
20260904180527 74 67 4.0 9.0 0.00 0.01 0.01 50 1027.5
20260904180049 74 69 3.0 8.0 0.00 0.01 0.01 51 1027.4
20260904175527 74 94 3.0 10.0 0.00 0.01 0.01 51 1027.6
20260904175024 74 52 5.0 12.0 0.00 0.01 0.01 50 1027.7
20260904174542 75 75 4.0 12.0 0.00 0.01 0.01 50 1027.6
20260904174024 74 101 5.0 12.0 0.00 0.01 0.01 50 1027.6
20260904173525 73 50 2.0 10.0 0.00 0.01 0.01 53 1027.7
20260904173101 73 53 4.0 10.0 0.00 0.01 0.01 52 1027.7
20260904172525 73 63 3.0 10.0 0.00 0.01 0.01 52 1027.8
20260904172025 73 0 1.0 9.0 0.00 0.01 0.01 51 1027.6
20260904171548 73 0 4.0 9.0 0.00 0.01 0.01 51 1027.7
20260904171024 73 93 3.0 9.0 0.00 0.01 0.01 50 1027.6
20260904170526 73 87 2.0 4.0 0.00 0.01 0.01 51 1027.7
20260904170044 72 72 1.0 5.0 0.00 0.01 0.01 51 1027.6
20260904165524 72 74 2.0 5.0 0.00 0.01 0.01 51 1027.7
20260904165023 72 57 1.0 5.0 0.00 0.01 0.01 53 1027.7
20260904164553 72 107 0.0 9.0 0.00 0.01 0.01 52 1027.5
20260904164022 72 0 3.0 9.0 0.00 0.01 0.01 52 1027.4
20260904163524 72 106 3.0 8.0 0.00 0.01 0.01 52 1027.4
20260904163049 72 104 3.0 8.0 0.00 0.01 0.01 51 1027.3
20260904162525 73 102 3.0 8.0 0.00 0.01 0.01 51 1027.3
20260904162024 72 0 1.0 6.0 0.00 0.01 0.01 53 1027.3
20260904161549 72 0 0.0 4.0 0.00 0.01 0.01 54 1027.2
20260904161028 72 75 2.0 4.0 0.00 0.01 0.01 54 1027.3
20260904160526 72 74 1.0 5.0 0.00 0.01 0.01 54 1027.3
20260904160048 71 57 0.0 6.0 0.00 0.01 0.01 55 1027.4
20260904155525 71 56 2.0 6.0 0.00 0.01 0.01 56 1027.3
20260904155024 71 76 3.0 6.0 0.00 0.01 0.01 55 1027.4
20260904154552 70 0 0.0 6.0 0.00 0.01 0.01 56 1027.4
20260904154025 70 63 3.0 6.0 0.00 0.01 0.01 55 1027.4
20260904153525 70 57 0.0 6.0 0.00 0.01 0.01 58 1027.4
20260904153052 69 67 1.0 6.0 0.00 0.01 0.01 58 1027.4
20260904152523 69 66 3.0 6.0 0.00 0.01 0.01 58 1027.4
20260904152027 68 70 1.0 6.0 0.00 0.01 0.01 60 1027.4
20260904151543 68 53 2.0 6.0 0.00 0.01 0.01 59 1027.4
20260904151024 68 55 3.0 6.0 0.00 0.01 0.01 60 1027.2
20260904150525 68 41 1.0 4.0 0.00 0.01 0.01 60 1027.3
20260904150042 68 40 2.0 4.0 0.00 0.01 0.01 61 1027.2
20260904145527 68 271 1.0 3.0 0.00 0.01 0.01 60 1027.3
20260904145028 67 0 0.0 3.0 0.00 0.01 0.01 62 1027.2
20260904144550 67 0 0.0 3.0 0.00 0.01 0.01 61 1027.2
20260904144023 67 311 1.0 3.0 0.00 0.01 0.01 63 1027.3
20260904143531 67 0 0.0 3.0 0.00 0.01 0.01 64 1027.2
20260904143046 66 314 1.0 3.0 0.00 0.01 0.01 64 1027.1
20260904142526 66 0 0.0 3.0 0.00 0.01 0.01 67 1027.1
20260904142025 66 315 0.0 3.0 0.00 0.01 0.01 67 1027.2
20260904141551 65 0 0.0 3.0 0.00 0.01 0.01 70 1027.0
20260904141024 65 275 1.0 3.0 0.00 0.01 0.01 69 1027.0
20260904140527 64 0 0.0 2.0 0.00 0.01 0.01 73 1026.9
20260904140043 64 0 0.0 3.0 0.00 0.01 0.01 73 1026.8
20260904135527 63 254 1.0 3.0 0.00 0.01 0.01 74 1026.7
20260904135025 63 254 0.0 2.0 0.00 0.01 0.01 76 1026.7
20260904134611 62 0 0.0 2.0 0.00 0.01 0.01 77 1026.8
20260904134023 62 0 0.0 2.0 0.00 0.01 0.01 77 1026.7
20260904133523 61 211 0.0 2.0 0.00 0.01 0.01 77 1026.5
20260904133052 61 0 0.0 3.0 0.00 0.01 0.01 78 1026.5
20260904132528 61 0 0.0 3.0 0.00 0.01 0.01 78 1026.3
20260904132025 61 211 1.0 4.0 0.00 0.01 0.01 78 1026.2
20260904131543 61 211 1.0 4.0 0.00 0.01 0.01 77 1026.1
20260904131026 61 211 1.0 4.0 0.00 0.01 0.01 78 1026.0
20260904130524 60 0 0.0 0.0 0.00 0.01 0.01 79 1025.9
20260904130052 61 0 0.0 1.0 0.00 0.01 0.01 79 1025.8
20260904125529 61 0 0.0 2.0 0.00 0.01 0.01 78 1025.8
20260904125023 61 205 0.0 2.0 0.00 0.01 0.01 77 1025.8
20260904124554 62 0 0.0 2.0 0.00 0.01 0.01 78 1025.8
20260904124026 62 0 0.0 2.0 0.00 0.01 0.01 76 1025.7
20260904123526 62 0 0.0 2.0 0.00 0.01 0.01 74 1025.8
20260904123044 63 0 0.0 1.0 0.00 0.01 0.01 75 1025.7
20260904122524 63 0 0.0 1.0 0.00 0.01 0.01 76 1025.7
20260904122024 63 0 0.0 4.0 0.00 0.01 0.01 75 1025.6
20260904121554 63 0 0.0 4.0 0.00 0.01 0.01 76 1025.5
20260904121022 63 198 1.0 4.0 0.00 0.01 0.01 75 1025.5
20260904120526 63 136 0.0 3.0 0.00 0.01 0.01 74 1025.6
20260904120051 64 0 0.0 0.0 0.00 0.01 0.01 74 1025.6
20260904115525 64 0 0.0 0.0 0.00 0.01 0.01 73 1025.4
20260904115028 64 0 0.0 2.0 0.00 0.01 0.01 72 1025.5
20260904114558 64 0 0.0 6.0 0.00 0.01 0.01 69 1025.3
20260904114031 64 136 0.0 6.0 0.00 0.01 0.01 71 1025.4
20260904113525 64 164 2.0 6.0 0.00 0.01 0.01 71 1025.3
20260904113042 64 294 0.0 2.0 0.00 0.01 0.01 73 1025.3
20260904112525 64 0 0.0 3.0 0.00 0.01 0.01 74 1025.3
20260904112025 63 0 1.0 3.0 0.00 0.01 0.01 73 1025.1
20260904111552 63 0 0.0 2.0 0.00 0.01 0.01 74 1024.9
20260904111025 63 0 0.0 3.0 0.00 0.01 0.01 74 1025.0
20260904110524 63 0 1.0 3.0 0.00 0.01 0.01 75 1024.9
20260904110049 63 0 0.0 3.0 0.00 0.01 0.01 74 1024.9
20260904105527 63 0 0.0 3.0 0.00 0.01 0.01 73 1024.9
20260904105024 63 0 0.0 3.0 0.00 0.01 0.01 73 1024.8
20260904104542 64 296 0.0 0.0 0.00 0.01 0.01 76 1024.7
20260904104023 64 0 0.0 0.0 0.00 0.01 0.01 74 1024.7
20260904103531 64 0 0.0 3.0 0.00 0.01 0.01 72 1024.6
20260904103042 64 0 0.0 4.0 0.00 0.01 0.01 72 1024.6
20260904102526 64 296 2.0 4.0 0.00 0.01 0.01 71 1024.5
20260904102023 64 296 2.0 4.0 0.00 0.01 0.01 71 1024.5
20260904101543 63 296 2.0 9.0 0.00 0.01 0.01 71 1024.4
20260904101024 63 292 2.0 9.0 0.01 0.01 0.01 74 1024.5
20260904100526 62 287 3.0 9.0 0.01 0.01 0.01 76 1024.4
20260904100101 62 0 1.0 4.0 0.01 0.01 0.01 80 1024.4
20260904095527 62 274 3.0 4.0 0.01 0.01 0.01 81 1024.5
20260904095028 62 266 3.0 4.0 0.01 0.01 0.01 81 1024.5
20260904094553 62 261 2.0 4.0 0.01 0.01 0.01 81 1024.6
20260904094026 62 257 2.0 4.0 0.01 0.01 0.01 80 1024.5
20260904093524 62 251 2.0 4.0 0.01 0.01 0.01 78 1024.5
20260904093043 63 0 1.0 4.0 0.01 0.01 0.01 78 1024.7
20260904092530 63 243 0.0 4.0 0.01 0.01 0.01 77 1024.6
20260904092024 63 0 0.0 4.0 0.01 0.01 0.01 75 1024.7
20260904091552 64 0 0.0 4.0 0.00 0.00 0.00 76 1024.7
20260904091027 64 292 1.0 3.0 0.00 0.00 0.00 71 1024.6
20260904090523 65 0 0.0 2.0 0.00 0.00 0.00 69 1024.7
20260904085523 65 0 0.0 3.0 0.00 0.00 0.00 63 1024.8
20260904085024 65 0 0.0 0.0 0.00 0.00 0.00 58 1024.7
20260904084548 65 0 0.0 1.0 0.00 0.00 0.00 57 1024.7
20260904084024 65 0 0.0 2.0 0.00 0.00 0.00 57 1024.5
20260904083526 65 290 0.0 2.0 0.00 0.00 0.00 57 1024.3
20260904083139 65 0 0.0 2.0 0.00 0.00 0.00 57 1024.4
20260904082525 65 290 1.0 3.0 0.00 0.00 0.00 57 1024.3
20260904082028 65 290 1.0 3.0 0.00 0.00 0.00 57 1024.4
20260904081552 65 290 1.0 2.0 0.00 0.00 0.00 57 1024.3
20260904081024 65 0 1.0 2.0 0.00 0.00 0.00 57 1024.3
20260904080529 65 290 1.0 3.0 0.00 0.00 0.00 57 1024.4
20260904080049 64 290 1.0 3.0 0.00 0.00 0.00 57 1024.4
20260904075526 64 290 2.0 3.0 0.00 0.00 0.00 57 1024.4
20260904075025 64 0 0.0 0.0 0.00 0.00 0.00 57 1024.5
20260904074543 64 0 0.0 2.0 0.00 0.00 0.00 57 1024.6
20260904074028 64 0 0.0 2.0 0.00 0.00 0.00 58 1024.6
20260904073526 64 290 0.0 3.0 0.00 0.00 0.00 58 1024.6
20260904073043 64 290 1.0 3.0 0.00 0.00 0.00 58 1024.5
20260904072523 64 0 0.0 0.0 0.00 0.00 0.00 58 1024.6
20260904072030 64 0 0.0 0.0 0.00 0.00 0.00 58 1024.6
20260904071600 64 0 0.0 0.0 0.00 0.00 0.00 58 1024.7
20260904071025 64 0 0.0 0.0 0.00 0.00 0.00 57 1024.6
20260904070527 64 0 0.0 0.0 0.00 0.00 0.00 57 1024.7
20260904070111 65 0 0.0 0.0 0.00 0.00 0.00 56 1024.7
20260904065529 65 0 0.0 0.0 0.00 0.00 0.00 55 1024.7
20260904065031 65 0 0.0 0.0 0.00 0.00 0.00 55 1024.7
20260904064542 65 0 0.0 0.0 0.00 0.00 0.00 55 1024.6
20260904064024 65 0 0.0 0.0 0.00 0.00 0.00 54 1024.6
20260904063529 66 0 0.0 0.0 0.00 0.00 0.00 54 1024.7
20260904063045 66 0 0.0 0.0 0.00 0.00 0.00 54 1024.6
20260904062524 66 0 0.0 0.0 0.00 0.00 0.00 54 1024.6
20260904062022 66 0 0.0 0.0 0.00 0.00 0.00 53 1024.7
20260904061552 66 0 0.0 0.0 0.00 0.00 0.00 53 1024.7
20260904061025 67 0 0.0 0.0 0.00 0.00 0.00 53 1024.7
20260904060523 67 0 0.0 0.0 0.00 0.00 0.00 53 1024.8
20260904060050 67 0 0.0 0.0 0.00 0.00 0.00 53 1024.7
20260904055525 67 0 0.0 0.0 0.00 0.00 0.00 52 1024.7
20260904055026 67 0 0.0 0.0 0.00 0.00 0.00 53 1024.7
20260904054550 67 0 0.0 0.0 0.00 0.00 0.00 52 1024.8
20260904054024 68 0 0.0 0.0 0.00 0.00 0.00 51 1024.7
20260904053527 68 0 0.0 0.0 0.00 0.00 0.00 51 1024.7
20260904053056 68 0 0.0 0.0 0.00 0.00 0.00 51 1024.8
20260904052524 68 0 0.0 0.0 0.00 0.00 0.00 50 1024.8
20260904052023 68 0 0.0 2.0 0.00 0.00 0.00 50 1024.9
20260904051552 68 0 0.0 3.0 0.00 0.00 0.00 50 1024.9
20260904051025 69 0 1.0 3.0 0.00 0.00 0.00 49 1024.7
20260904050528 69 290 0.0 3.0 0.00 0.00 0.00 49 1024.9
20260904050046 69 290 1.0 3.0 0.00 0.00 0.00 48 1024.9
20260904045527 69 290 1.0 4.0 0.00 0.00 0.00 48 1024.7
20260904045028 69 290 1.0 4.0 0.00 0.00 0.00 48 1024.9
20260904044552 70 290 2.0 4.0 0.00 0.00 0.00 48 1024.9
20260904044024 70 0 0.0 4.0 0.00 0.00 0.00 47 1024.9
20260904043525 70 0 0.0 4.0 0.00 0.00 0.00 47 1024.9
20260904043058 70 290 2.0 4.0 0.00 0.00 0.00 47 1024.9
20260904042530 70 290 2.0 5.0 0.00 0.00 0.00 47 1025.0
20260904042027 70 288 2.0 5.0 0.00 0.00 0.00 47 1025.0
20260904041549 70 284 0.0 5.0 0.00 0.00 0.00 47 1025.1
20260904041030 70 284 1.0 6.0 0.00 0.00 0.00 47 1025.0
20260904040526 70 283 2.0 8.0 0.00 0.00 0.00 48 1025.1
20260904040100 70 285 3.0 8.0 0.00 0.00 0.00 48 1025.1
20260904035525 70 285 3.0 7.0 0.00 0.00 0.00 48 1025.1
20260904035023 70 290 2.0 7.0 0.00 0.00 0.00 48 1025.1
20260904034540 70 294 2.0 7.0 0.00 0.00 0.00 48 1025.1
20260904034025 70 290 2.0 7.0 0.00 0.00 0.00 48 1025.1
20260904033526 70 280 2.0 7.0 0.00 0.00 0.00 48 1025.1
20260904033051 70 294 2.0 5.0 0.00 0.00 0.00 48 1025.2
20260904032523 70 288 1.0 4.0 0.00 0.00 0.00 48 1025.2
20260904032023 71 290 1.0 5.0 0.00 0.00 0.00 47 1025.2
20260904031554 71 291 1.0 6.0 0.00 0.00 0.00 47 1025.0
20260904031026 71 270 1.0 7.0 0.00 0.00 0.00 46 1025.1
20260904030525 72 271 2.0 8.0 0.00 0.00 0.00 46 1025.1
20260904030043 72 242 2.0 10.0 0.00 0.00 0.00 45 1025.1
20260904025524 72 240 4.0 13.0 0.00 0.00 0.00 45 1024.9
20260904025026 72 288 4.0 13.0 0.00 0.00 0.00 44 1024.9
20260904024553 73 178 4.0 10.0 0.00 0.00 0.00 44 1024.9
20260904024026 73 184 0.0 4.0 0.00 0.00 0.00 45 1024.7
20260904023526 73 177 2.0 5.0 0.00 0.00 0.00 44 1024.6
20260904023049 73 128 0.0 5.0 0.00 0.00 0.00 44 1024.6
20260904022526 73 128 1.0 8.0 0.00 0.00 0.00 44 1024.5
20260904022022 73 142 3.0 8.0 0.00 0.00 0.00 44 1024.5
20260904021545 73 155 2.0 12.0 0.00 0.00 0.00 44 1024.4
20260904021024 74 163 4.0 12.0 0.00 0.00 0.00 44 1024.3
20260904020524 74 128 5.0 12.0 0.00 0.00 0.00 43 1024.3
20260904020045 75 120 6.0 18.0 0.00 0.00 0.00 42 1024.2
20260904015527 76 149 7.0 18.0 0.00 0.00 0.00 41 1024.0
20260904015025 76 122 7.0 16.0 0.00 0.00 0.00 37 1024.0
20260904014554 77 103 4.0 10.0 0.00 0.00 0.00 36 1023.8
20260904014025 77 188 5.0 10.0 0.00 0.00 0.00 36 1023.8
20260904013525 77 98 1.0 7.0 0.00 0.00 0.00 35 1023.8
20260904013047 77 118 2.0 7.0 0.00 0.00 0.00 35 1023.7
20260904012526 77 98 2.0 7.0 0.00 0.00 0.00 35 1023.7
20260904012024 78 114 1.0 7.0 0.00 0.00 0.00 34 1023.7
20260904011546 78 110 2.0 7.0 0.00 0.00 0.00 34 1023.6
20260904011024 78 111 2.0 7.0 0.00 0.00 0.00 34 1023.6
20260904010525 78 115 3.0 11.0 0.00 0.00 0.00 33 1023.6
20260904010050 79 123 3.0 11.0 0.00 0.00 0.00 33 1023.6
20260904005524 79 112 3.0 8.0 0.00 0.00 0.00 33 1023.6
20260904005024 79 98 3.0 9.0 0.00 0.00 0.00 33 1023.6